Regional Weather Roundup
Issued by NWS Grand Forks, ND

Home | Current Version | Previous Version | Graphics & Text | Print | Product List | Glossary On
Versions: 1 2 3 4 5 6 7 8 9 10 11 12 13 14 15 16 17 18 19 20 21 22 23 24 25 26 27 28 29 30 31 32 33 34 35 36 37 38 39 40 41 42 43 44 45 46 47 48 49 50
000
ASUS43 KFGF 260731
RWRFGF
PRAIRIE TO PINES  WEATHER ROUNDUP
NATIONAL WEATHER SERVICE EASTERN NORTH DAKOTA/GRAND FORKS ND
200 AM CDT WED APR 26 2017

 **SATELLITE DATA USED TO AUGMENT SKY COVER AT AUTOMATED STATIONS**
 *****  WEATHER ACROSS EASTERN NORTH DAKOTA  *****

CITY           SKY/WX    TMP DP  RH WIND       PRES   REMARKS
GRAND FORKS    CLOUDY    33  27  78 NE20      29.86F WCI  21
GRAND FRKS AFB CLOUDY    31  25  78 NE20G26   29.86F WCI  19
DEVILS LAKE    FAIR      31  26  82 NE16      29.89F WCI  20
FARGO          FRZ RAIN  32  29  88 N17G29    29.77F WCI  21
WAHPETON ARPT  CLOUDY    32  30  93 N14       29.73S WCI  22
$$

 ***** WEATHER ACROSS CENTRAL AND WESTERN NORTH DAKOTA  *****

CITY           SKY/WX    TMP DP  RH WIND       PRES   REMARKS
BISMARCK       CLOUDY    36  26  67 N9        29.91S
MINOT          FAIR      30  23  75 N13       29.96F WCI  20
JAMESTOWN      CLOUDY    31  27  85 NE16      29.82S WCI  20
MINOT AFB      FAIR      30  21  70 N13       29.96F WCI  20
GARRISON         N/A     33  23  66 NE9       29.93F
WILLISTON      MOCLDY    31  23  72 NE5       29.98F
DICKINSON      CLOUDY    31  25  78 NE5       29.90S
HETTINGER      CLOUDY    30  25  81 NW8       29.92S WCI  22
$$

 *****  OTHER AIRPORT OBSERVATIONS IN OUR AREA  *****

CITY           SKY/WX    TMP DP  RH WIND       PRES   REMARKS
WALHALLA       NOT AVBL
GRAFTON AIRPOR CLOUDY    30  27  86 N16       29.91F WCI  19
VALLEY CITY AR CLOUDY    28  28 100 NE23      29.82S WCI  14
CANDO          NOT AVBL
CAVALIER APRT  PTSUNNY   30  23  74 NE16G24   29.93F WCI  19
GWINNER        CLOUDY    30  30 100 MISG      29.77S
SHEYENNE NWR     N/A     31  27  86 NE15      29.95S WCI  20
ROLLA          FAIR      28  21  74 N17G24    29.93F WCI  16
 ***** THE ABOVE OBSERVATIONS ARE NON NWS ARE NOT QUALITY
       CONTROLLED AND MAY MIS-REPORT RAIN FOR SNOW...
$$

  *****  WEATHER ACROSS NORTHERN MINNESOTA  *****

CITY           SKY/WX    TMP DP  RH WIND       PRES   REMARKS
FLAG ISLAND    CLOUDY    28  21  74 NE20G25   29.93S WCI  15
WARROAD        CLOUDY    28  25  86 NE21G28   29.90F WCI  15
ROSEAU         CLOUDY    30  25  80 NE20G25   29.89F WCI  18
HALLOCK        CLOUDY    32  25  74 NE13G20   29.90F WCI  22
THF RVR FALLS  CLOUDY    29  25  85 NE22G28   29.84F WCI  15
BAUDETTE       CLOUDY    27  20  75 NE20      29.88F WCI  13
WASKISH        CLOUDY    27  25  93 NE8G18    29.83F WCI  18
CROOKSTON      CLOUDY    30  27  86 NE16G24   29.84F WCI  19
STEPHEN NDAWN    N/A     30  27  86 NE17        N/A  WCI  18
GREENBUSH NDAW   N/A     28  27  93 NE16        N/A  WCI  17
$$
  *****  WEATHER ACROSS CENTRAL AND WEST MINNESOTA  *****

CITY           SKY/WX    TMP DP  RH WIND       PRES   REMARKS
FOSSTON        MIX PCPN  28  27  93 NE16G24   29.78F WCI  17
BEMIDJI        LGT SNOW  28  26  93 NE14      29.76F WCI  16
PARK RAPIDS    FRZ RAIN  31  26  82 NE14G21   29.71F WCI  21
ELBOW LAKE     LGT RAIN  33  32  95 E13G21    29.67F WCI  24
WADENA         LGT SNOW  30  30 100 N9        29.66F WCI  22
DETROIT LAKES  MIX PCPN  32  30  93 NE8       29.72F WCI  25
MOORHEAD       DRIZZLE   30  28  93 N12       29.77S WCI  21
FERGUS FALLS   DRIZZLE   34  32  93 NE8G16    29.70S
MORRIS MN      DRIZZLE   36  34  93 N14       29.64F
STAPLES        MIX PCPN  30  30 100 CALM      29.66F
$$
  *****  WEATHER ELSEWHERE ACROSS MINNESOTA  *****

CITY           SKY/WX    TMP DP  RH WIND       PRES   REMARKS
DULUTH         LGT RAIN  35  32  88 E20G28    29.68F WCI  24
INTRNTL FALLS  CLOUDY    25  20  81 NE15G25   29.86F WCI  13
ELY            FLURRIES  25  23  93 NE10G22   29.76F WCI  15
CLOQUET        FLURRIES  36  32  87 E13G26    29.66F
WHEATON        MIX PCPN  34  32  93 NW15      29.72S WCI  24
BRAINERD       MIX PCPN  32  30  92 NE17G25   29.66F WCI  21
HIBBING        FRZ RAIN  28  27  96 N13       29.72F WCI  17
ALEXANDRIA     MIX PCPN  33  31  92 NE18      29.64F WCI  22
SAINT CLOUD    RAIN      40  39  97 N9G20     29.58F FOG
MINNEAPOLIS    CLOUDY    46  42  86 N14       29.50F
$$

  *****  WEATHER ACROSS SOUTH DAKOTA  *****

CITY           SKY/WX    TMP DP  RH WIND       PRES   REMARKS
SIOUX FALLS    CLOUDY    37  37 100 NW18      29.65R
BROOKINGS      CLOUDY    33  32  96 N17G24    29.63F WCI  22
WATERTOWN      CLOUDY    31  30  96 N20       29.66F WCI  19
HURON          CLOUDY    32  32 100 NW15      29.76S WCI  22
SISSETON         N/A     33  32  96 N22       29.71F WCI  21
ABERDEEN       FRZ RAIN  31  28  89 N15       29.78F FOG     WCI  20
MITCHELL       CLOUDY    34  32  92 NW18      29.75F WCI  23
PIERRE         CLOUDY    32  28  85 N12       29.83S WCI  23
MOBRIDGE       CLOUDY    35  25  66 N17G23    29.82F WCI  25
RAPID CITY     CLOUDY    27  24  89 NW14      29.89F WCI  16
$$

  *****  SOME WEATHER IN NEARBY STATES *****

CITY           SKY/WX    TMP DP  RH WIND       PRES   REMARKS
GLASGOW MT     CLOUDY    37  24  59 SE12      29.94R
GREAT FALLS MT CLOUDY    37  35  92 CALM      29.82F
CHEYENNE WY    CLOUDY    28  24  85 N9        29.82F WCI  19
SCOTTSBLUFF NE CLOUDY    32  26  78 W6        29.86F
OMAHA NE       CLOUDY    41  36  82 N17       29.59R
DES MOINES IA  LGT RAIN  48  45  89 NW13      29.47F
DAVENPORT IA   LGT RAIN  68  52  56 SW14G23   29.44S
CHICAGO IL     CLOUDY    68  54  60 S15       29.51F
EAU CLAIRE WI  LGT RAIN  47  46  97 NE13      29.48F
LA CROSSE WI   LGT RAIN  57  55  93 CALM      29.44F
$$

  *****  SOME NATIONAL WEATHER *****

CITY           SKY/WX    TMP DP  RH WIND       PRES   REMARKS
LA GUARDIA NY  CLOUDY    54  51  90 NE21      29.78F FOG
RALEIGH NC     CLOUDY    60  56  86 VRB5      29.75S
ATLANTA GA     FAIR      61  56  83 SW3       29.78S
NEW ORLEANS LA FAIR      68  61  78 S7        29.71F
OKLAHOMA CITY  CLOUDY    54  50  86 N16G28    29.51
ALBUQUERQUE NM FAIR      47  28  47 N12       29.82S
SALT LAKE CITY FAIR      44  36  73 SE10      29.93R
LOS ANGELES CA MOCLDY    70  36  28 NW13      29.89R
BOISE ID       LGT RAIN  48  38  68 N8        29.91F
SEATTLE WA     LGT RAIN  50  48  93 S15       29.78R FOG
$$

*** WEATHER ACROSS MANITOBA...SASKATCHEWAN AND ONTARIO ***
                ***ONTARIO***

CITY           SKY/WX    TMP DP  RH WIND       PRES   REMARKS
GERALDTON      LGTSLEET  16  12  86 NE12G22   30.00F WCI   3
THUNDER BAY    FRZ RAIN  27  25  93 N8        29.87F WCI  18
SIOUX LOOKOUT  FLURRIES  19  14  79 NE10G20   30.00F WCI   8
TORONTO        MOCLDY    50  46  87 E8        29.82F
BIG TROUT LK   CLEAR      9   3  78 NE7       30.29F WCI  -3
PICKLE LAKE    NOT AVBL
DRYDEN         CLOUDY    21  18  86 NE24G35   29.95F WCI   4
KENORA         CLOUDY    25  19  80 NE15G22   29.94F WCI  12
$$
                *** MANITOBA***

CITY           SKY/WX    TMP DP  RH WIND       PRES   REMARKS
BRANDON        MOCLDY    28  16  59 NE16      30.02F WCI  17
DAUPHIN        CLEAR     19  16  86 VRB2      30.10F
ISLAND LAKE    CLEAR     18   5  57 E9        30.24F WCI   6
PILOT MOUND      N/A     28  23  80 N10         N/A  WCI  19
THE PAS        CLEAR     23   9  54 E7        30.20F WCI  15
THOMPSON       CLEAR      7  -6  56 CALM      30.29S
WINNIPEG       PTCLDY    32  23  69 NE10      30.00F WCI  24
LYNN LAKE      CLEAR     16   1  53 S6        30.19S WCI   7
CHURCHILL      CLEAR      0  -6  78 S13       30.30F WCI -18
GILLAM         CLEAR      1  -4  78 SE6       30.34F WCI -10
$$
                ***SASKATCHEWAN***

CITY           SKY/WX    TMP DP  RH WIND       PRES   REMARKS
ESTEVAN        PTCLDY    27  21  80 E9        30.01S WCI  17
KINDERSLEY     FLURRIES  28  28 100 SE17G26   29.90F WCI  16
LLOYDMINSTER   LGT SNOW  28  28 100 E12       29.96S WCI  18
PRINCE ALBERT  MOCLDY    27  16  63 E8        30.07F WCI  18
REGINA         MOCLDY    32  19  59 E15       30.01S WCI  22
YORKTON        CLEAR     23  18  80 N2        30.07S
N. BATTLEFORD  FLURRIES  30  30 100 E7        30.02F WCI  23
LA RONGE       CLEAR     27   9  46 SE8       30.11F WCI  18
SASKATOON      CLOUDY    34  21  60 E9        30.02F
SWIFT CURRENT  LGT SNOW  30  28  93 SE13      29.90S WCI  20
$$
NOTE: THESE ARE AUTOMATED STATIONS WITH LIMITED QUALITY CONTROL
      "FAIR" INDICATES FEW OR NO CLOUDS BELOW 12,000 FEET WITH NO
      SIGNIFICANT WEATHER AND/OR OBSTRUCTIONS TO VISIBILITY.
      SKY/WX - SKY CONDITION AND SIGNIFICANT WEATHER.
      TMP - AIR TEMPERATURE.    DP   - DEWPOINT TEMPERATURE.
      RH  - RELATIVE HUMIDITY.  PRES - PRESSURE.
      HX  - HEAT INDEX.         WCI  - WIND CHILL INDEX.
$




USA.gov is the U.S. government's official web portal to all federal, state and local government web resources and services.